Theta_e
348 347 343 340 339 339 338 338 337 335 333 330 328 323 318 315 321 332 337 338 338 338 339 339 338 338 336 336 335 334 334 332 330 327 321 317 321 324 322 321 322 321 317 312 310 310 310 310 310 310 309 309 309 310 310 310 311 311 310 311 316 325 330 330 331 330 328 327 328 330 330 330 330 330 332 333 334 335 336 336 336 336 336 336 335
349 347 342 340 339 339 338 338 337 335 332 329 326 322 319 315 318 329 336 337 338 338 338 338 337 337 336 336 335 335 333 331 330 329 323 317 318 321 320 318 319 316 313 311 310 310 310 310 309 309 309 309 310 311 311 312 312 312 311 311 313 319 325 328 330 329 327 328 329 331 331 331 331 331 332 333 334 335 336 336 336 336 336 336 335
348 346 342 340 340 339 338 338 337 334 330 327 326 324 321 318 318 325 334 337 337 338 338 337 337 336 336 336 335 333 331 330 331 328 322 317 316 316 316 316 317 315 315 314 310 310 310 310 309 309 310 310 310 311 313 313 312 312 312 311 310 313 320 326 328 328 326 328 330 331 331 331 330 331 332 332 334 335 336 336 336 337 336 336 335
348 346 341 340 339 339 338 337 337 333 328 327 328 326 322 320 319 322 330 334 336 337 337 337 337 336 336 335 333 330 328 328 327 325 322 317 315 317 320 320 316 316 318 314 309 310 310 310 310 310 311 311 310 312 313 314 313 313 312 311 310 310 316 322 325 325 324 325 328 331 332 331 331 330 331 332 333 334 335 336 336 336 336 335 333
348 345 340 340 339 339 338 337 337 331 327 328 329 327 323 321 321 322 325 330 334 336 337 336 336 336 335 334 331 328 327 326 324 322 320 317 319 325 331 328 317 312 314 310 309 311 312 311 312 313 313 314 314 313 312 314 314 315 314 311 310 309 311 315 320 321 322 322 325 331 332 332 332 330 329 331 332 333 334 335 335 335 333 332 330
348 344 340 340 339 339 338 338 336 330 326 328 330 328 323 321 320 323 325 326 330 333 335 335 335 336 334 331 329 327 324 323 321 320 319 319 326 333 336 332 317 310 311 310 313 312 313 313 314 315 316 317 317 315 313 314 315 316 316 312 309 308 309 311 315 317 319 319 322 329 331 331 332 330 329 329 329 330 332 333 333 333 332 330 325
348 343 340 340 339 339 338 338 335 329 327 329 330 327 324 322 320 321 324 326 328 330 332 334 335 335 333 330 328 327 328 328 324 320 319 323 331 334 335 332 318 312 316 318 317 314 318 322 323 320 319 319 317 317 315 315 315 316 316 312 310 308 308 309 312 313 314 315 318 326 329 329 329 328 326 325 326 326 328 330 331 332 331 328 322
346 342 340 340 340 340 338 338 334 328 327 330 330 328 326 324 321 319 320 323 325 326 327 331 333 333 332 332 333 334 336 336 333 326 319 322 330 330 332 330 317 316 324 324 321 323 327 326 325 321 320 320 318 319 317 316 316 315 314 312 311 309 308 308 310 312 312 312 313 319 325 326 327 326 321 319 321 322 324 326 328 329 329 325 321
345 342 341 341 340 340 338 338 334 328 328 330 330 328 326 325 322 318 317 318 320 321 322 326 331 333 334 335 337 338 339 339 338 332 323 320 324 326 327 324 316 321 326 323 324 328 328 322 319 319 321 320 319 319 318 318 318 315 313 313 312 311 309 308 309 311 311 312 311 313 317 320 323 323 319 314 315 318 320 322 323 323 322 320 320
344 341 341 341 340 340 338 338 334 328 329 330 330 329 327 326 324 320 317 317 318 320 321 325 330 333 335 336 337 339 339 338 336 333 327 321 321 323 324 320 317 322 323 324 327 326 323 319 317 319 322 321 319 319 318 318 319 315 314 313 313 312 311 310 308 309 310 311 311 311 313 315 317 318 316 313 311 314 316 318 317 315 315 315 315
343 341 340 340 340 339 338 338 333 329 329 329 330 330 329 328 326 322 319 317 319 323 325 327 330 332 333 334 336 337 337 334 331 331 329 324 322 322 322 319 317 321 323 325 326 323 320 318 317 319 322 323 322 320 318 319 319 316 314 313 312 313 312 311 310 309 309 309 310 310 314 316 317 318 315 312 310 310 312 313 313 312 312 312 312
341 340 339 339 339 339 338 338 334 328 328 329 330 331 331 330 327 324 320 317 319 325 330 331 331 331 332 333 334 333 332 328 328 332 330 324 322 321 319 318 319 324 325 325 323 320 319 318 318 320 322 323 323 321 319 319 320 317 316 315 313 313 313 313 312 310 309 309 309 309 314 316 316 316 314 311 310 309 310 311 312 312 311 311 310
338 337 337 338 338 339 338 337 333 328 328 330 330 331 332 331 329 325 321 318 318 322 328 331 331 331 332 332 331 330 330 329 330 332 331 324 321 321 318 317 321 325 325 324 321 318 319 319 319 320 321 322 323 322 321 320 320 319 317 317 315 313 313 313 312 312 311 310 310 309 310 311 311 312 311 310 310 310 310 310 310 310 310 309 309
334 335 337 338 338 338 338 337 332 327 328 329 331 332 333 333 330 326 321 319 318 321 326 330 330 329 330 331 331 332 331 332 332 332 332 326 320 321 318 318 323 326 326 325 321 320 321 322 322 320 320 321 323 323 322 321 321 319 318 318 317 315 314 314 313 312 312 311 310 310 309 309 310 310 310 310 310 310 310 310 310 309 309 309 309
332 334 337 337 338 338 338 336 331 327 328 329 331 332 333 334 331 325 321 319 319 322 327 329 328 329 330 331 332 332 330 331 330 330 331 328 323 322 320 319 324 327 327 325 324 324 324 324 323 321 319 321 322 323 323 322 322 321 319 319 318 317 315 314 314 313 313 312 311 310 310 310 310 309 309 309 309 310 310 310 310 309 309 309 310
333 334 336 337 339 339 337 336 332 328 327 329 330 332 333 334 332 325 320 320 321 324 326 327 328 329 328 329 328 327 327 328 328 328 329 327 326 326 323 320 321 325 327 327 328 328 327 327 325 323 321 321 322 324 323 322 322 321 320 320 319 318 317 316 315 313 313 312 312 311 310 310 310 309 308 308 309 309 309 309 309 309 309 310 309
334 334 335 338 340 339 338 337 335 329 327 329 330 332 334 334 333 324 320 321 323 327 328 328 328 327 325 325 325 325 326 327 328 329 329 328 327 327 327 323 322 326 329 329 330 330 330 329 328 327 324 322 322 323 323 322 322 321 320 321 321 320 319 317 316 315 314 313 312 312 311 310 310 309 309 308 309 308 308 309 309 309 309 309 309
334 336 336 338 340 339 338 339 336 331 330 332 331 334 334 335 333 323 320 322 325 329 330 329 328 327 328 328 328 328 328 328 328 329 330 330 328 328 328 326 324 327 329 329 330 330 330 330 329 328 327 326 324 324 324 322 321 321 321 322 323 322 320 318 317 316 316 314 313 312 311 311 310 310 309 309 309 309 308 308 308 308 308 308 309
336 338 337 339 340 339 339 338 336 333 333 334 334 335 334 335 331 320 320 323 324 328 328 328 329 331 332 332 331 330 329 328 328 329 330 330 329 330 328 328 326 326 329 330 330 330 329 329 329 328 328 329 327 326 326 324 322 322 322 322 322 322 322 320 318 317 316 315 314 313 312 311 311 311 310 309 308 308 308 308 308 308 308 308 308
337 338 339 340 339 339 339 338 336 335 334 334 334 335 335 335 328 320 322 324 325 327 328 330 331 332 332 333 333 332 330 329 329 329 330 330 331 331 329 328 327 324 328 330 330 330 329 329 328 327 328 330 330 328 328 327 325 324 324 324 323 322 323 322 320 318 317 316 316 314 313 312 311 311 311 309 308 308 308 307 307 308 308 308 308
337 338 338 339 339 339 339 338 337 336 335 334 334 334 335 333 325 322 325 325 327 330 331 332 332 332 332 332 332 332 331 331 331 329 328 328 328 329 327 327 328 325 326 329 330 330 329 328 328 328 330 330 331 330 329 329 328 327 326 326 325 324 325 325 323 320 319 318 317 316 316 314 313 312 311 310 309 308 308 307 307 307 307 307 307
337 338 338 339 339 339 338 339 337 337 336 334 334 334 335 332 324 325 329 329 331 333 332 333 333 333 332 331 331 331 331 330 327 323 322 321 321 322 323 323 325 325 324 325 328 329 328 329 328 329 330 331 331 331 331 330 330 329 328 328 327 326 326 327 325 323 322 320 319 318 317 316 314 313 312 311 310 309 308 307 307 307 307 307 307
337 336 336 337 338 338 338 338 338 337 336 334 333 334 335 333 327 328 332 332 333 334 333 333 333 333 332 331 330 329 328 326 322 320 320 320 319 319 319 319 319 320 321 321 324 326 327 329 329 329 330 331 331 331 332 331 331 331 331 329 328 326 327 327 326 325 324 322 321 320 319 318 316 314 312 311 310 310 309 308 307 307 307 306 306
336 335 335 335 336 338 338 338 338 338 336 334 333 334 336 334 330 330 333 333 334 334 334 333 333 332 331 330 329 326 326 325 323 321 321 320 321 320 320 320 318 318 318 319 321 323 325 327 329 331 331 331 331 331 332 332 332 332 332 330 329 327 327 328 328 327 326 324 324 323 321 320 319 317 314 312 311 310 309 308 308 307 306 306 306
336 336 336 336 335 337 337 338 338 338 337 335 334 334 336 334 329 330 333 333 333 333 333 333 332 331 331 330 327 326 326 327 325 322 321 322 322 321 321 321 320 320 319 318 318 319 321 322 325 327 329 329 331 331 331 332 333 333 332 331 329 328 328 328 329 329 328 327 326 324 323 322 321 321 318 313 311 310 310 309 308 307 307 307 306
336 335 335 336 335 336 336 337 337 338 337 335 335 335 336 334 329 329 333 333 333 332 332 332 331 330 330 329 327 326 326 326 325 324 322 322 322 322 322 321 321 320 320 319 318 318 317 318 319 321 323 325 328 330 330 332 333 333 332 331 330 329 328 329 329 330 330 329 327 325 324 322 323 325 322 316 313 310 309 309 309 308 307 307 307
336 334 333 334 333 334 335 336 337 337 337 336 335 335 336 333 326 328 333 333 333 332 331 331 329 329 328 328 326 326 327 327 325 325 323 323 323 322 322 321 321 320 320 320 319 319 318 317 317 317 319 320 323 327 329 331 333 334 333 332 330 329 329 329 330 330 330 329 328 326 324 322 322 324 323 319 315 312 310 310 309 309 308 308 307
336 333 332 332 332 334 335 336 337 337 337 336 335 335 336 331 322 327 333 332 332 332 331 330 327 327 327 327 326 325 328 328 326 325 324 323 323 323 324 323 322 321 320 321 320 320 319 319 318 317 319 319 319 324 327 330 332 333 333 332 330 330 330 330 331 331 331 330 328 326 323 322 321 321 322 319 317 313 310 310 309 309 308 308 308
336 334 333 334 334 334 335 335 337 337 336 336 335 334 336 329 321 328 333 332 332 330 329 328 326 326 326 326 325 326 328 328 327 326 325 324 324 326 326 326 326 325 323 322 322 321 320 320 320 319 322 323 322 324 325 328 331 332 333 332 330 330 330 330 331 331 332 330 329 326 323 322 320 320 321 321 320 315 312 311 310 309 309 309 308
336 335 335 337 335 333 336 336 336 336 336 335 334 333 335 329 322 329 333 332 332 330 329 327 325 325 326 326 325 326 327 328 327 327 326 326 327 328 328 327 327 327 326 326 325 324 323 322 321 322 323 325 326 326 325 326 330 332 332 331 330 330 329 330 331 331 331 330 330 328 324 321 320 320 321 322 323 321 318 316 314 313 311 310 309
336 335 336 337 334 333 336 336 335 336 335 335 333 333 336 328 323 331 333 332 332 330 329 327 324 325 326 326 326 326 326 327 328 327 327 327 327 328 328 328 327 327 327 328 327 327 326 325 324 324 325 326 327 327 327 326 329 331 331 331 330 329 329 329 330 331 330 329 330 330 326 323 320 320 321 321 322 324 324 322 320 318 314 312 312
336 335 334 335 333 333 335 335 334 336 335 334 333 334 336 329 324 331 333 332 332 331 329 327 324 324 327 327 326 326 326 326 327 327 327 326 325 326 326 326 326 326 327 327 327 327 327 327 327 327 327 328 328 328 328 328 329 330 330 330 329 329 329 329 330 331 330 329 329 328 327 325 322 320 320 318 321 325 325 324 324 321 317 317 318
337 335 336 336 334 332 334 336 335 335 335 334 333 334 335 329 324 330 332 332 332 331 329 327 324 323 327 328 326 326 325 326 327 327 327 325 324 324 324 325 325 326 326 326 327 327 327 327 327 328 328 328 329 328 329 328 328 329 329 329 329 329 330 330 331 330 329 328 328 327 325 326 325 321 317 317 323 325 323 322 322 320 319 320 322
338 337 337 338 336 333 333 336 336 335 335 334 333 334 334 327 323 329 332 332 331 330 329 327 324 323 326 327 325 324 324 325 326 326 325 325 324 324 324 325 325 326 326 326 327 327 327 327 327 327 327 328 328 328 328 328 328 328 328 329 329 331 331 331 330 328 327 327 327 326 324 324 326 325 321 320 323 325 323 321 320 320 321 323 324
338 337 336 338 337 335 335 334 335 335 335 334 333 334 334 327 323 328 331 332 331 329 328 326 324 324 325 326 325 324 325 325 326 326 325 325 325 324 324 325 325 326 326 327 327 327 327 327 327 326 326 328 328 328 328 328 328 328 327 327 328 330 331 330 329 328 328 327 327 326 323 323 325 326 325 322 323 324 325 324 323 324 326 327 327
336 336 335 337 337 336 336 334 333 334 334 334 333 333 332 326 324 327 330 331 331 329 328 326 324 324 324 325 325 325 326 326 326 326 325 325 325 325 325 325 325 325 326 326 327 327 326 326 327 326 326 327 328 328 328 328 327 327 326 326 327 328 330 330 328 328 328 327 327 325 324 324 325 326 326 324 323 324 324 324 325 326 327 327 327
337 337 335 336 336 335 335 334 334 333 333 334 334 332 329 325 324 326 329 331 331 330 328 326 325 324 324 325 325 326 327 327 326 326 326 325 325 326 326 325 325 325 325 325 326 326 326 325 326 325 325 327 327 327 327 327 327 327 326 327 327 328 329 329 328 328 328 327 326 325 324 325 326 327 326 325 325 325 324 325 326 327 327 327 327
335 337 335 335 335 335 335 334 334 334 333 334 333 331 328 326 325 325 329 332 331 330 329 327 325 325 325 326 327 327 327 327 327 327 327 326 326 326 327 326 326 325 325 325 325 326 325 325 326 325 325 326 326 327 327 327 327 327 326 327 328 329 329 328 328 329 328 328 327 325 324 326 326 326 326 326 326 326 326 326 326 326 326 326 326
332 335 336 335 335 335 335 335 335 334 334 334 333 331 329 327 326 326 329 332 332 330 328 327 326 325 326 326 327 327 327 327 327 327 327 327 327 327 327 327 326 326 326 326 326 325 325 325 325 324 325 325 326 327 327 327 326 326 326 327 328 329 329 329 329 329 327 328 327 326 325 326 326 326 326 326 326 326 326 326 325 325 325 324 324
333 334 336 336 336 336 336 335 335 334 334 334 334 333 331 329 328 328 330 332 332 331 328 326 326 326 326 326 327 327 327 328 328 328 327 328 328 328 327 327 326 327 326 326 326 325 325 325 324 324 325 326 326 327 327 327 326 326 326 326 328 329 329 329 329 328 328 327 327 327 327 326 326 326 326 326 325 325 325 325 325 325 324 324 324
335 334 336 337 336 335 335 335 335 334 334 334 334 334 332 331 331 331 331 332 332 331 328 326 326 326 326 327 327 327 328 328 328 328 328 328 329 328 327 327 326 327 328 326 326 326 325 325 325 325 326 326 327 327 327 327 326 327 327 327 328 328 328 328 328 328 328 327 327 326 326 326 326 326 325 325 325 325 325 324 324 325 325 324 322
335 333 336 338 337 336 336 336 336 335 335 334 334 334 333 331 332 332 332 331 331 329 327 326 326 326 327 328 328 328 328 328 328 328 328 329 329 328 328 327 327 328 328 327 326 326 325 325 325 325 326 327 327 327 327 327 327 327 327 327 328 328 328 327 327 328 327 327 326 326 326 326 326 325 325 324 325 325 325 324 324 324 324 322 319
335 333 336 338 338 337 337 336 337 336 335 335 334 334 333 332 333 332 331 330 329 328 327 327 327 327 329 329 328 328 328 328 327 327 327 328 328 329 328 328 328 328 328 327 326 326 325 325 325 325 326 327 327 327 327 327 327 327 327 328 328 328 328 327 327 327 327 326 326 326 326 326 326 325 325 324 324 325 325 325 324 324 323 320 317
336 335 337 338 338 338 337 337 337 335 335 335 334 334 333 333 333 331 330 329 328 327 328 328 328 329 329 329 327 327 327 326 326 327 326 326 327 328 328 327 328 328 327 327 326 326 325 325 325 325 326 327 327 327 327 327 327 327 328 328 328 328 328 328 327 327 327 326 326 326 327 326 326 326 325 325 325 325 325 324 324 324 321 318 317
338 339 339 338 338 338 337 337 337 334 334 334 334 333 332 332 331 330 329 329 328 328 328 329 330 330 328 327 326 325 325 325 326 326 326 325 326 327 326 326 327 328 327 326 326 326 326 326 325 325 326 327 327 327 327 327 327 327 327 327 327 328 328 327 327 326 327 327 327 327 327 326 326 326 326 326 325 325 324 324 323 321 319 317 316
340 340 339 338 338 338 338 338 336 333 333 333 334 332 331 330 329 329 329 329 329 328 328 329 330 329 326 326 326 325 325 325 326 326 325 325 326 325 324 325 326 325 325 325 325 324 324 325 326 325 326 327 327 328 328 328 328 327 327 326 326 327 326 326 326 326 326 326 326 327 327 327 326 326 326 325 325 325 324 322 320 318 317 316 316
339 339 339 337 338 338 337 337 335 333 333 333 333 331 330 330 329 328 329 329 328 327 328 329 328 326 326 326 325 325 326 326 325 325 325 325 325 324 324 324 325 324 324 325 324 323 323 325 326 325 326 327 327 328 328 328 328 327 327 326 325 325 325 325 326 326 326 326 326 326 326 326 326 325 325 325 324 323 322 319 317 317 316 315 314
338 338 338 337 337 337 336 337 334 332 332 332 332 330 330 329 329 329 329 328 327 327 328 328 325 324 326 325 325 326 326 325 325 325 324 325 324 324 324 324 324 324 324 324 324 324 324 325 326 325 325 326 327 328 329 328 328 328 327 326 325 325 325 325 325 326 326 326 326 326 326 326 325 325 324 323 321 319 318 317 316 315 313 312 311
337 336 337 337 337 336 335 335 333 332 332 331 330 330 330 329 329 329 329 328 328 326 326 324 323 325 326 325 325 325 325 325 325 325 325 324 324 324 324 324 325 325 324 325 325 325 325 325 326 326 325 325 326 327 328 328 329 328 328 327 326 326 326 326 326 326 326 325 325 326 325 325 324 322 320 318 316 315 315 313 312 311 310 309 307
336 336 336 336 336 335 334 334 332 333 333 332 331 331 331 330 329 329 329 328 328 326 324 323 323 325 326 325 325 324 324 324 324 324 323 322 322 322 323 324 325 325 325 325 325 325 326 326 327 327 325 325 325 325 326 327 328 328 328 327 327 327 326 325 326 326 325 325 325 325 325 324 321 317 315 314 313 312 311 311 309 307 306 305 305
335 335 334 335 335 334 333 332 332 333 334 332 332 332 330 330 330 330 329 328 326 324 322 322 322 323 324 323 323 321 319 319 318 318 317 317 318 319 321 321 323 324 325 325 325 325 326 326 327 326 326 326 325 325 325 326 327 327 327 327 327 327 326 325 325 326 326 325 325 325 324 323 319 315 313 311 310 309 309 308 307 305 304 304 304
Wind_Speed
28 28 28 26 23 22 20 19 18 16 14 12 11 11 12 14 17 19 19 19 19 20 20 20 20 19 18 17 16 15 14 14 13 13 13 13 14 14 16 17 17 16 17 18 17 16 18 19 19 20 20 22 23 24 26 27 28 29 28 26 24 25 24 23 23 22 22 22 22 21 21 21 19 17 16 17 18 18 18 18 19 19 19 19 19
30 30 29 27 24 22 21 20 18 16 14 12 12 12 12 14 17 19 20 20 20 21 21 21 20 19 18 17 15 14 13 13 12 12 12 12 13 14 15 16 15 16 16 16 16 17 19 18 19 20 20 22 23 24 26 28 29 29 29 28 25 23 23 24 24 22 23 22 21 20 20 21 19 17 15 16 18 18 17 17 18 18 19 18 17
30 30 30 27 24 23 21 20 19 16 14 13 13 12 12 14 16 19 20 21 21 22 21 20 20 19 17 16 14 14 13 12 12 12 12 12 12 13 14 15 15 16 16 16 16 18 18 18 18 19 19 21 23 25 27 28 29 29 29 28 27 24 22 23 23 22 22 22 22 21 20 20 18 16 15 15 15 16 17 16 17 17 17 16 16
29 31 30 27 24 23 22 21 19 16 15 14 14 12 12 14 16 18 19 21 21 21 21 20 19 18 17 15 14 13 12 11 12 12 11 11 12 12 14 15 15 16 17 17 17 17 17 17 17 17 18 19 21 24 27 27 28 29 28 28 27 26 23 21 20 21 21 21 22 20 18 18 17 16 15 14 13 13 14 15 15 15 14 14 14
29 31 30 28 25 23 22 21 19 17 16 16 14 13 12 13 14 16 18 19 20 20 20 19 18 17 15 14 13 12 11 11 11 12 12 13 14 14 14 15 15 16 17 17 17 16 17 16 16 16 17 18 18 22 25 27 27 28 28 28 27 26 24 21 19 18 19 21 21 17 15 15 14 16 15 13 12 11 12 12 12 12 12 13 12
29 30 30 28 25 23 22 21 19 17 17 17 15 14 13 13 13 15 16 18 19 19 19 19 18 16 15 14 13 12 11 10 11 12 14 15 17 17 14 14 15 17 18 17 16 16 16 15 15 15 16 17 18 22 25 25 26 27 27 27 27 26 25 23 20 18 17 18 19 14 13 13 11 14 14 12 12 11 10 9 9 9 10 10 9
28 30 30 27 25 23 21 21 19 18 18 17 16 14 14 13 13 14 16 17 18 19 18 18 17 16 15 14 13 12 11 10 10 12 14 16 18 18 16 13 16 18 18 17 16 16 16 15 15 14 16 18 19 22 24 24 26 26 26 26 26 25 24 23 21 19 18 17 16 12 13 13 10 11 13 12 12 11 9 8 8 7 7 6 6
27 30 29 26 25 23 21 21 20 18 19 18 16 15 14 13 13 14 15 16 17 17 18 18 16 16 15 14 13 12 12 11 11 11 12 15 17 18 17 14 17 18 18 17 16 16 15 15 14 14 17 19 20 21 23 24 25 25 26 26 26 25 25 24 23 21 19 18 16 14 14 13 11 10 11 12 12 11 10 8 7 6 5 4 5
27 29 28 26 24 23 22 21 20 19 19 18 17 15 14 13 13 13 14 15 15 15 16 17 17 16 15 15 15 15 14 13 12 11 11 14 16 16 15 15 18 18 17 16 16 15 14 14 13 14 18 19 20 21 22 23 24 25 25 25 25 25 25 25 24 23 21 20 18 16 15 13 12 11 12 12 12 11 10 8 6 5 4 4 3
27 29 27 26 24 23 22 21 20 19 19 18 17 15 14 14 13 13 13 15 16 17 17 17 17 16 16 15 17 17 15 12 10 9 10 12 14 14 14 16 18 17 17 16 15 14 14 13 13 15 18 18 19 20 21 23 23 24 25 25 25 24 25 25 25 25 23 21 20 19 18 17 14 13 13 13 13 12 10 9 7 6 6 5 4
26 28 27 25 24 23 22 22 21 20 20 18 17 15 14 13 13 12 13 15 17 18 18 18 18 17 16 15 16 15 12 10 9 9 9 10 12 13 13 16 18 18 17 16 15 14 13 13 13 15 18 17 18 19 20 21 22 23 24 24 24 24 24 24 26 25 24 22 21 21 20 19 17 15 16 16 14 13 11 10 8 8 8 8 9
24 27 26 25 24 23 23 22 22 20 20 18 17 15 14 13 12 12 13 14 16 18 18 18 18 18 17 16 14 13 11 9 10 10 9 10 12 12 13 16 18 18 17 16 15 14 13 13 13 15 17 16 17 18 19 20 20 22 23 23 23 23 23 23 25 25 24 23 22 22 20 19 18 18 18 18 17 15 13 12 11 11 12 13 14
23 26 26 26 25 24 23 23 22 20 20 19 17 15 14 13 12 12 13 14 16 18 18 17 17 17 16 15 14 13 12 11 12 11 9 9 11 12 12 16 18 17 17 16 15 14 13 13 13 14 17 17 17 18 18 19 19 20 21 22 22 22 22 22 23 24 24 23 22 21 20 20 19 18 18 18 18 18 17 16 16 16 16 16 16
22 25 25 26 26 25 24 23 21 20 20 19 18 15 14 13 12 12 13 14 15 17 18 17 17 16 16 15 14 14 13 12 12 11 9 9 10 12 13 15 17 17 16 16 16 15 14 13 12 13 16 17 17 17 17 17 17 18 19 21 21 21 21 21 22 22 23 22 21 20 20 20 19 18 18 18 17 17 17 17 17 17 17 16 16
21 24 26 26 26 25 24 22 21 20 19 18 18 16 14 13 12 13 13 14 15 17 18 18 17 17 16 15 14 13 12 12 12 12 10 9 10 12 14 15 18 18 17 17 17 16 14 13 12 12 15 17 16 17 16 15 15 16 17 19 20 20 19 20 21 21 21 21 20 19 19 19 18 18 17 17 16 15 16 16 16 16 16 15 15
21 23 25 25 24 24 23 22 20 20 19 18 18 16 14 13 13 12 13 14 16 18 18 18 17 16 16 15 13 12 12 12 12 12 11 10 12 13 13 15 18 19 18 18 18 16 15 13 12 11 12 15 16 16 15 14 14 14 15 16 18 18 18 19 20 20 19 19 19 18 17 17 17 17 16 15 15 15 15 15 15 15 14 14 14
22 23 25 25 23 24 23 21 19 19 19 18 17 16 14 13 12 12 13 16 17 18 18 18 17 16 15 15 14 13 13 13 13 13 12 11 12 13 12 13 16 19 18 18 18 16 15 13 12 10 10 11 13 14 14 13 12 12 13 14 16 17 17 17 18 18 18 18 17 17 16 15 15 15 15 14 14 14 14 13 13 13 13 13 13
22 22 24 24 23 24 22 20 19 18 18 17 17 16 14 13 12 12 14 16 18 18 17 17 16 16 16 16 16 15 14 14 13 13 13 13 13 13 12 12 14 16 17 18 18 17 16 14 12 10 9 9 10 12 12 11 11 11 11 12 14 15 16 16 16 17 16 16 16 15 14 14 14 14 14 13 13 13 12 12 12 12 12 12 12
19 19 21 22 22 23 21 20 20 18 19 18 17 16 14 13 11 12 14 16 17 17 17 16 16 16 16 17 16 16 15 15 14 13 14 14 14 14 13 12 12 14 17 18 19 18 16 14 13 11 9 8 8 9 10 11 10 10 10 11 12 14 15 15 15 16 15 15 14 14 13 12 12 12 12 12 12 11 11 11 11 11 11 11 11
16 17 19 20 21 22 21 21 21 19 19 18 17 16 14 13 12 13 14 15 17 17 17 17 16 16 16 16 16 16 15 14 13 13 14 14 14 14 13 13 13 14 15 17 19 19 17 15 13 12 10 8 8 8 9 10 10 9 10 11 12 13 14 14 14 14 15 14 13 12 11 11 10 10 10 10 10 10 10 10 10 10 10 10 10
15 17 17 19 20 21 21 21 21 20 19 18 17 17 15 14 14 15 15 15 17 17 17 17 16 16 15 15 15 15 14 13 12 12 13 13 13 14 14 15 14 15 17 18 20 19 18 16 14 13 11 9 7 6 7 8 9 9 9 10 11 12 12 12 12 13 13 13 13 12 11 10 9 9 9 9 9 9 9 9 9 9 9 9 8
16 17 16 18 20 21 21 20 21 20 19 18 18 18 16 16 16 16 15 16 17 17 18 16 16 15 15 14 14 14 12 12 12 12 13 13 13 12 13 14 15 15 17 18 19 19 18 16 15 14 12 10 9 7 6 7 8 9 9 9 9 10 11 11 11 12 12 12 12 11 11 10 8 8 7 8 8 7 7 7 7 8 7 7 7
17 17 16 18 20 21 21 20 20 20 20 20 19 18 17 17 16 16 16 17 17 17 17 16 15 14 14 14 13 12 12 12 12 13 12 12 12 10 10 11 12 13 14 16 18 18 17 17 16 15 13 12 11 9 7 7 7 8 9 8 8 9 9 10 10 11 11 11 11 11 10 10 8 7 6 6 6 6 6 6 6 6 6 6 6
18 17 17 18 19 21 20 20 20 20 21 20 20 19 18 17 16 17 17 17 16 16 15 15 15 14 14 13 12 12 12 12 12 12 11 11 11 10 10 9 10 11 11 13 16 17 18 17 17 16 15 14 13 11 9 8 7 8 8 8 8 8 9 10 10 10 11 10 10 10 10 9 8 7 5 5 5 5 5 5 5 5 5 5 6
19 19 18 18 20 22 21 21 21 21 21 21 20 20 19 17 17 17 17 17 15 15 15 15 15 14 14 13 12 11 12 12 11 11 10 10 10 10 9 9 9 9 10 10 12 14 16 17 17 17 17 16 15 13 10 8 8 8 8 8 8 7 8 9 9 9 9 9 9 9 9 9 8 7 6 5 4 4 4 4 4 4 4 5 5
22 22 22 21 22 24 22 21 21 21 22 21 20 20 19 17 17 17 17 16 15 15 15 15 15 14 14 12 11 11 10 11 11 11 10 10 9 8 8 8 8 8 8 9 9 10 11 14 16 17 18 17 16 14 11 9 8 7 8 8 7 7 7 8 8 8 8 8 8 8 8 8 8 7 7 6 3 3 3 3 3 3 3 4 4
25 24 24 23 24 25 23 22 21 22 22 22 21 21 19 17 17 17 16 16 15 15 15 15 15 14 13 12 11 11 11 10 10 11 10 9 8 7 7 6 7 8 8 8 9 8 8 10 12 15 16 16 17 15 13 10 8 8 8 8 7 7 7 7 7 7 7 7 7 7 7 7 7 6 5 6 4 3 2 2 2 2 3 3 4
25 25 24 23 24 24 23 22 21 22 22 22 22 21 19 17 17 17 16 15 15 14 14 14 14 13 13 12 12 11 11 11 10 10 9 9 8 6 6 6 7 7 7 7 7 8 6 7 8 10 11 12 14 14 13 11 9 9 8 7 7 7 7 7 6 6 5 5 6 6 6 6 6 5 5 5 4 3 3 2 2 2 3 3 4
25 25 23 23 24 23 23 23 23 24 24 22 22 21 19 17 18 17 17 16 14 14 13 13 13 14 14 13 13 12 12 11 10 10 9 8 7 6 6 5 6 6 6 6 6 7 6 6 7 7 7 8 9 10 11 11 10 9 8 7 6 6 6 6 5 5 5 4 5 5 5 5 5 4 5 5 4 4 4 4 3 3 3 4 4
25 23 24 23 24 24 23 23 24 25 25 24 23 22 19 18 18 18 17 16 14 14 13 13 13 14 14 14 14 13 12 11 10 10 9 8 7 7 6 5 5 5 5 6 6 6 6 6 6 6 6 6 5 6 8 9 10 10 8 7 6 5 5 5 5 4 4 4 5 4 4 4 4 3 4 5 5 6 6 6 5 4 4 5 6
26 24 26 25 24 24 22 23 25 25 25 25 23 21 19 18 19 18 17 16 14 14 13 13 13 13 14 14 14 13 12 11 10 10 9 9 8 7 6 6 5 4 5 6 6 6 5 5 5 6 6 6 5 4 5 7 9 10 9 8 6 5 4 5 5 4 4 5 5 3 3 4 4 3 4 5 7 7 7 7 7 7 8 9 11
28 26 26 25 24 23 22 23 25 25 25 24 23 21 19 18 19 18 17 16 14 15 14 13 14 14 14 13 13 13 12 12 11 11 11 9 8 8 7 6 6 6 6 5 5 5 4 5 5 6 6 6 6 5 5 6 8 10 10 8 6 6 6 6 6 6 5 5 5 5 5 4 3 3 4 6 9 9 7 6 7 7 11 13 15
26 26 23 24 25 24 24 25 24 24 24 24 23 21 19 18 19 18 18 17 15 15 14 13 14 14 14 14 12 12 12 12 12 11 11 10 8 8 7 7 7 7 6 6 6 5 4 4 5 6 7 7 7 6 6 7 8 9 9 8 7 7 7 8 8 7 6 5 5 5 5 6 3 3 5 7 10 10 9 7 6 7 11 13 13
21 23 23 25 26 25 25 27 25 22 23 23 22 21 19 19 20 19 18 17 15 15 14 14 15 14 14 14 12 12 12 11 11 11 11 9 8 7 8 8 8 7 6 6 7 5 4 4 5 5 6 8 8 7 7 8 8 9 9 8 7 7 8 9 8 7 6 5 5 4 5 6 4 3 6 7 11 12 11 10 9 10 11 11 10
20 21 25 27 27 26 24 25 24 23 24 23 22 22 21 20 19 19 18 17 16 15 14 14 15 14 13 13 12 12 12 11 11 11 10 9 8 7 7 8 8 7 7 7 7 6 5 4 5 5 6 7 9 8 8 8 8 8 8 6 6 7 8 8 7 7 6 5 5 5 5 7 7 7 7 8 11 11 11 10 9 9 9 9 8
22 21 26 29 28 28 26 24 24 24 24 23 22 22 21 20 19 18 18 17 16 15 14 14 14 15 14 13 13 12 12 11 11 11 11 10 9 8 8 8 8 8 7 8 8 7 6 5 6 6 7 7 9 9 9 9 9 8 7 6 6 7 8 7 5 6 7 6 5 4 5 6 7 9 8 8 10 10 10 9 7 8 8 8 6
25 24 27 29 29 29 27 25 24 24 24 22 22 21 20 19 19 18 17 17 16 15 14 14 15 15 15 13 12 12 12 11 11 11 11 11 10 9 9 8 8 8 8 8 8 8 7 7 7 8 8 8 9 10 10 10 9 7 6 6 6 7 7 6 5 5 7 8 7 6 6 6 7 8 8 8 8 8 8 7 6 7 7 6 5
26 28 28 28 29 30 28 26 25 24 23 23 22 21 20 20 19 18 17 17 16 15 14 15 15 15 15 13 12 12 11 11 10 10 11 11 11 10 10 9 8 8 8 8 8 8 8 8 8 8 9 9 10 11 11 11 10 8 7 6 6 7 7 7 6 6 8 9 8 7 7 7 8 8 7 8 8 8 8 7 6 6 5 5 4
28 31 30 28 27 28 26 25 25 24 23 23 22 20 21 20 20 19 18 18 17 16 15 15 15 15 15 13 12 11 10 10 10 10 10 11 10 10 10 9 9 9 9 9 8 8 8 9 9 9 10 10 11 11 11 11 10 9 8 7 7 7 6 5 5 7 9 9 8 7 7 7 8 8 7 7 8 8 8 6 5 4 4 3 3
32 31 31 28 25 24 23 23 24 25 24 23 22 22 22 21 20 20 19 19 19 16 14 15 15 15 14 13 11 11 10 10 10 10 10 10 10 9 9 9 9 9 9 9 8 8 9 9 9 10 10 11 12 11 10 10 11 10 9 8 8 8 6 6 6 8 8 9 9 8 7 6 7 8 7 6 6 6 6 5 4 3 3 4 3
32 31 31 28 25 25 25 24 24 25 26 26 24 23 23 22 21 21 20 20 19 17 15 15 16 15 14 12 11 11 10 10 10 10 10 10 10 9 8 10 10 9 9 9 9 10 10 10 10 11 11 11 12 12 10 10 11 12 12 11 9 8 7 6 7 7 8 9 9 8 8 7 8 7 6 6 5 4 4 3 2 2 3 4 4
33 32 32 29 28 27 26 25 24 25 28 28 26 23 23 24 22 20 20 20 19 17 16 15 15 14 13 12 11 11 10 10 10 10 10 10 10 9 9 10 10 10 9 9 9 11 11 11 10 11 12 11 11 12 11 11 10 12 15 13 11 8 7 6 7 7 8 9 9 9 9 8 7 7 6 5 4 3 3 2 1 2 3 4 5
32 31 30 30 29 27 26 25 23 24 28 29 27 25 24 22 20 19 20 20 18 17 16 15 14 13 13 12 11 11 11 11 10 10 11 11 11 10 10 10 10 10 10 9 9 11 12 11 11 11 12 12 11 11 11 11 10 11 13 12 11 10 8 7 8 7 7 9 10 10 10 9 7 7 6 6 5 4 3 3 3 4 5 6 7
32 32 31 30 30 28 27 26 22 23 27 28 29 27 24 21 19 20 20 19 19 18 17 15 14 14 13 13 12 11 11 11 11 11 11 11 11 10 10 10 9 10 10 10 9 10 12 12 12 12 11 11 11 11 11 11 10 11 10 10 11 11 9 8 9 8 7 8 10 11 11 9 8 9 8 7 6 5 5 5 5 6 6 7 8
32 32 30 28 29 29 28 26 22 24 27 28 28 28 25 23 22 22 22 21 20 20 19 16 15 14 14 13 12 11 11 11 11 10 10 10 10 10 9 9 9 10 10 10 10 10 11 12 13 12 11 11 10 11 12 12 10 10 9 8 9 9 9 10 9 7 5 6 9 11 12 10 8 9 9 8 7 7 7 7 7 7 7 8 9
31 31 29 26 28 28 27 25 22 25 28 28 29 29 28 27 27 26 25 24 23 21 19 17 16 15 14 13 12 12 11 10 9 8 8 9 9 9 8 8 9 9 10 10 11 10 10 11 12 12 11 10 9 9 12 13 11 10 9 6 5 6 9 12 10 8 7 6 8 10 10 9 8 8 9 9 9 9 9 7 7 8 9 9 9
29 31 29 27 27 28 27 24 23 27 29 30 31 30 30 29 28 28 27 25 24 21 19 17 16 16 15 13 12 11 10 9 8 7 8 8 9 8 7 7 8 9 10 10 10 9 10 11 12 12 11 11 9 8 11 13 12 11 10 7 5 5 7 9 9 9 10 8 9 9 9 9 11 11 11 12 11 10 9 8 9 9 9 9 9
28 31 30 28 26 27 27 23 24 29 31 33 33 32 31 29 28 27 26 24 22 21 19 18 17 16 15 13 11 10 9 9 8 8 7 7 7 7 6 6 7 8 9 9 9 8 9 10 11 11 11 11 10 9 10 11 11 12 12 10 6 4 4 4 4 8 12 12 12 11 11 12 14 15 13 12 11 10 10 10 10 9 8 8 8
28 29 28 27 25 25 26 24 26 31 32 34 34 31 29 28 28 26 25 24 21 20 20 20 19 17 15 13 12 11 10 9 9 8 8 7 6 6 5 6 6 7 8 8 9 9 8 9 10 10 10 10 11 11 11 10 11 12 11 11 8 4 3 3 4 7 9 12 14 15 15 15 15 15 14 13 12 11 11 10 9 8 7 7 7
25 25 24 24 24 25 26 25 28 31 31 32 31 29 27 26 26 25 24 24 22 22 22 20 19 17 15 14 13 12 10 10 9 7 7 6 6 6 6 6 6 7 7 6 8 8 8 9 10 10 9 9 10 11 12 11 11 11 9 10 10 7 4 3 6 9 8 9 12 17 18 17 17 16 15 13 12 11 9 9 8 7 7 6 7
20 20 20 20 21 23 26 26 28 30 30 30 29 26 24 24 25 24 23 24 23 23 22 20 19 17 16 14 13 11 10 9 8 6 5 5 6 6 6 6 6 6 6 6 6 7 8 8 9 9 9 10 10 11 12 13 12 12 10 10 10 8 6 5 5 8 10 10 12 17 18 15 16 17 15 13 11 10 9 9 8 7 7 7 7
Wind_Direction
177 178 171 166 170 168 169 170 173 171 169 168 164 161 159 160 162 162 160 159 157 156 156 158 158 159 156 151 146 139 134 130 127 123 120 121 124 125 122 120 119 119 116 113 114 114 111 109 107 103 102 103 98 91 85 82 82 83 82 86 94 102 108 107 102 101 103 107 108 108 108 108 108 108 103 97 96 96 95 97 98 96 95 94 93
171 176 169 166 170 168 169 170 172 168 168 166 160 157 153 154 159 162 161 160 158 158 160 161 161 160 157 152 147 140 138 137 133 126 122 122 125 125 121 119 119 117 115 115 116 114 112 110 105 103 104 104 99 92 87 83 81 82 81 83 89 98 105 107 107 108 110 111 110 108 108 109 109 109 104 97 96 97 97 96 97 95 94 92 91
165 172 167 165 169 168 169 170 169 166 167 161 156 153 149 150 155 162 163 162 161 162 163 163 163 160 158 153 148 143 143 142 135 127 124 124 128 128 126 123 121 119 118 119 118 116 115 110 106 106 105 103 100 93 88 84 81 81 81 82 84 91 100 107 109 112 116 115 114 111 108 109 109 110 108 105 101 101 99 95 93 90 92 94 92
162 168 164 163 168 169 169 169 167 164 164 157 153 151 149 149 153 161 163 165 165 165 166 165 164 161 159 154 148 147 147 144 136 130 126 126 128 125 123 123 124 123 121 120 119 119 117 112 111 109 104 103 102 95 89 85 83 81 81 82 82 86 94 105 107 111 118 121 120 111 108 111 113 116 114 112 108 106 103 96 95 95 97 97 95
162 165 163 162 166 168 169 168 166 163 162 156 153 152 150 149 151 158 162 165 166 166 166 164 163 161 157 153 149 148 147 143 138 131 127 126 122 114 119 127 127 125 123 124 125 122 116 113 113 109 106 105 100 95 91 86 83 81 80 81 82 84 88 98 102 107 114 124 125 109 105 109 111 120 120 121 121 117 113 107 106 105 103 99 95
162 163 162 162 165 166 168 167 164 162 161 156 154 153 148 147 150 155 160 164 165 166 164 163 162 159 154 151 148 145 143 140 136 131 131 130 122 120 131 135 129 129 129 128 127 121 117 116 114 112 111 108 99 94 92 88 84 81 79 79 81 83 85 91 96 101 106 121 126 106 101 104 103 121 129 135 135 132 128 121 117 112 108 100 94
161 162 162 162 164 165 167 167 164 164 161 158 157 152 147 146 149 156 162 163 165 165 164 164 161 156 152 150 146 141 140 137 136 135 138 135 131 138 147 141 134 135 131 128 126 122 121 119 116 112 108 106 102 97 94 91 87 82 79 78 78 81 83 86 89 94 98 111 121 106 100 104 100 118 134 140 144 145 143 138 130 123 115 98 88
161 162 162 163 165 165 167 167 165 166 163 162 158 152 148 146 149 157 162 165 165 164 165 164 159 155 153 151 148 145 143 140 135 138 144 142 143 149 150 142 139 137 131 129 128 126 125 121 117 111 104 103 103 99 97 93 89 85 81 79 77 79 80 82 84 87 89 97 111 113 110 107 100 109 127 134 142 146 146 144 136 134 127 99 82
162 163 163 165 166 167 167 168 167 167 167 166 160 154 151 148 147 151 157 162 161 159 161 159 155 154 152 150 149 147 146 144 138 140 149 150 151 151 147 143 142 139 135 134 131 131 128 124 120 112 106 105 105 101 99 95 91 88 84 80 78 78 79 81 82 82 83 86 98 111 113 105 100 107 113 118 130 137 141 140 135 141 133 107 91
164 164 164 167 168 168 169 169 169 170 170 167 161 157 153 150 145 144 148 154 155 150 148 149 152 153 149 148 147 146 146 146 144 146 151 152 153 151 146 144 145 143 140 138 136 136 132 127 122 112 109 108 107 104 100 96 93 91 87 83 80 78 79 80 81 80 79 82 88 97 101 96 95 102 104 108 117 126 134 138 133 129 124 118 112
165 165 165 169 169 170 171 170 172 174 172 168 163 161 156 150 145 142 142 147 150 144 141 143 147 150 150 150 148 148 148 146 146 146 146 144 147 148 147 147 148 146 144 143 141 140 136 131 123 112 110 110 108 104 100 97 95 93 91 87 83 80 79 79 80 79 79 81 83 85 87 87 88 92 96 98 102 112 121 130 129 122 119 113 104
168 167 167 169 169 171 173 173 175 176 173 170 166 163 157 151 145 141 139 144 149 144 142 144 145 147 149 152 151 151 151 147 146 145 143 139 139 141 145 149 149 148 148 147 146 143 139 134 127 118 114 114 111 107 103 99 96 95 94 90 87 84 82 81 80 80 79 78 78 79 82 84 86 87 89 91 94 100 106 111 111 108 105 103 101
170 168 168 168 169 173 175 175 176 177 173 171 169 164 158 152 145 140 140 145 149 148 147 148 149 148 149 151 152 154 153 149 148 147 147 143 140 138 142 151 151 150 151 150 148 145 143 140 134 125 120 119 115 111 107 103 100 97 95 92 89 88 87 86 84 83 81 78 76 78 81 83 84 86 87 89 91 93 95 96 97 97 96 97 97
173 169 167 168 171 174 175 175 176 177 175 173 170 166 159 153 145 139 142 145 148 149 150 152 152 152 153 152 153 153 150 148 149 149 149 147 144 143 146 153 153 152 152 151 150 149 150 146 142 134 125 123 119 115 112 108 103 99 96 93 90 88 88 89 87 86 84 81 80 80 81 82 83 85 86 87 89 91 92 92 92 93 93 92 91
178 172 167 170 173 172 173 175 177 177 175 174 171 166 160 151 142 137 141 145 146 149 151 153 152 153 153 152 152 149 147 148 149 148 148 150 147 146 151 156 157 155 154 154 153 154 155 151 149 142 131 126 123 121 117 113 107 100 97 95 92 89 88 89 88 87 86 84 83 82 81 82 82 81 82 83 85 88 91 91 91 92 92 93 93
176 174 170 171 171 168 171 173 176 177 174 174 171 166 159 147 140 137 143 146 145 148 150 151 151 152 151 150 150 148 148 146 144 142 138 140 142 143 149 157 161 158 156 156 156 158 159 157 157 151 139 132 129 126 121 118 112 104 100 98 96 92 89 89 89 89 88 87 85 85 84 83 82 81 82 82 83 84 85 87 88 89 90 91 92
174 175 174 170 168 169 170 170 171 174 173 173 171 165 157 146 141 140 146 148 147 149 149 149 149 148 148 146 146 144 143 142 141 139 130 125 131 138 145 156 162 159 158 159 160 163 164 164 163 161 151 139 134 129 125 123 117 110 106 103 101 96 92 91 92 92 91 91 90 90 89 87 86 85 86 86 85 84 83 84 85 86 87 87 87
175 174 175 171 169 170 169 167 165 167 168 168 168 162 155 147 142 144 148 150 151 151 150 148 146 143 142 141 140 139 138 138 139 138 133 128 128 135 145 154 162 165 164 165 166 169 171 170 169 169 164 154 143 134 129 126 123 117 113 109 105 101 96 93 94 95 94 93 93 93 92 90 89 88 89 91 90 88 86 84 84 84 84 83 83
174 171 174 171 169 170 170 170 164 164 166 166 165 159 155 150 145 149 152 154 153 152 150 146 143 140 139 137 136 135 134 134 134 136 138 137 134 135 146 154 163 172 172 173 174 175 177 176 176 177 178 174 160 145 135 130 128 123 117 113 109 105 101 98 96 96 95 94 93 93 93 91 91 90 90 91 91 89 87 85 84 83 82 81 81
172 172 175 171 168 170 173 173 166 167 169 168 167 160 157 152 149 154 157 156 153 151 148 145 144 141 140 138 138 138 137 134 132 139 144 144 142 142 152 158 163 171 175 181 182 181 182 182 183 184 189 193 180 160 143 136 134 131 123 116 112 109 105 102 101 99 97 94 92 91 92 92 91 88 86 87 86 85 84 83 84 84 83 83 83
171 173 174 171 170 173 176 175 171 171 171 169 169 165 159 154 153 158 160 157 153 151 149 148 147 145 143 142 143 143 140 136 136 146 150 150 151 152 158 164 168 172 178 185 187 186 187 188 189 190 196 205 198 180 156 142 138 136 128 119 114 113 109 106 106 104 100 96 93 91 91 93 94 92 87 84 84 83 82 81 82 82 83 83 85
170 172 175 176 175 176 178 178 177 176 174 173 172 169 163 157 157 159 159 158 156 154 153 153 151 147 147 145 146 148 144 142 144 149 148 148 152 155 158 164 172 178 183 187 189 192 193 193 196 197 201 210 213 204 177 157 146 140 132 125 118 115 111 107 106 104 100 96 93 91 89 90 95 96 93 90 90 89 84 81 81 80 82 83 85
170 174 179 183 181 180 181 181 180 179 179 178 175 174 167 160 158 160 163 162 160 159 157 157 152 149 151 150 149 152 152 149 148 146 144 143 142 143 146 149 157 169 182 189 193 197 200 200 203 205 205 212 218 216 198 179 163 148 139 134 127 119 112 108 105 100 97 93 89 88 87 87 92 101 102 101 99 97 92 88 84 81 81 79 80
172 177 180 183 183 183 184 185 184 183 182 181 178 176 169 163 160 165 170 167 163 161 159 156 153 154 156 154 152 154 155 153 149 146 144 141 136 136 141 138 137 146 163 182 194 200 205 206 208 211 211 216 219 219 208 193 180 162 150 146 138 126 114 110 106 99 95 89 83 81 78 76 82 95 106 113 112 107 102 96 89 81 76 69 69
175 178 180 181 185 186 187 187 189 187 185 184 182 180 173 168 165 170 173 168 163 160 159 158 158 160 160 156 153 153 156 155 148 145 144 141 140 142 144 141 137 138 147 164 184 197 206 210 213 215 217 220 221 221 213 199 188 173 161 154 147 132 118 113 108 101 94 87 82 75 70 68 69 83 93 105 126 124 115 106 98 86 76 68 63
182 183 182 184 187 188 189 189 191 191 188 186 185 182 177 173 171 172 171 165 162 161 162 163 162 164 163 157 154 152 155 156 149 147 147 145 146 148 147 142 137 142 149 156 170 184 198 208 213 216 219 220 220 221 215 202 188 178 170 163 156 142 124 116 111 101 95 89 85 77 70 67 68 81 82 78 107 139 132 120 111 97 82 72 62
185 189 189 188 188 188 189 190 191 192 191 189 186 183 182 179 174 171 169 164 163 165 166 167 166 165 163 158 156 154 155 157 155 154 152 150 151 149 147 141 136 139 148 155 162 168 180 196 208 215 216 216 219 221 216 203 189 184 179 171 163 147 128 119 112 101 99 96 91 83 76 73 71 78 66 50 67 119 137 126 104 91 84 73 65
187 191 193 190 187 187 189 191 191 191 191 189 186 185 185 182 177 171 169 167 165 167 168 169 169 164 160 158 158 158 158 159 159 158 154 153 152 147 142 140 135 133 138 141 145 150 160 182 202 211 209 213 218 218 214 206 193 190 186 179 167 146 128 119 114 105 102 101 96 89 82 77 68 66 48 38 59 97 115 109 86 71 68 64 61
192 190 191 190 188 188 189 192 194 194 191 187 187 189 188 184 179 173 171 170 166 167 171 172 170 165 161 159 158 160 162 161 160 158 157 157 151 145 143 139 134 129 134 135 135 140 153 174 192 201 198 203 210 212 213 209 199 194 189 182 167 147 130 124 124 117 113 105 97 90 85 80 67 56 44 49 68 81 84 73 65 61 57 59 58
199 189 186 192 194 191 190 192 196 199 194 190 192 192 190 187 180 176 174 172 167 168 173 174 172 167 164 162 160 160 162 161 161 160 159 160 154 150 151 148 147 145 148 151 148 145 155 167 175 188 190 191 199 208 212 209 203 198 191 185 174 159 146 142 140 130 125 113 99 89 90 87 79 68 56 70 77 75 75 63 56 63 60 65 71
203 194 189 196 199 192 191 194 197 199 196 192 195 194 192 188 181 179 178 175 172 172 175 176 173 169 168 168 165 163 163 160 161 164 163 164 163 163 167 170 175 179 175 168 161 158 167 173 172 183 191 188 191 195 196 198 199 200 198 194 188 185 179 166 156 148 141 121 114 122 116 90 82 83 67 80 93 87 78 58 49 64 78 83 85
205 202 198 202 204 196 193 199 200 198 197 195 194 195 194 189 183 182 180 178 177 177 177 177 176 174 172 172 170 168 167 164 164 167 168 169 171 174 180 187 196 203 199 187 175 166 173 183 185 193 199 193 188 187 177 175 189 198 201 200 203 206 196 178 168 163 157 142 142 156 136 99 66 77 86 107 112 98 83 66 49 67 91 94 91
206 205 200 204 209 202 195 198 202 198 196 197 195 197 196 189 185 183 181 180 180 180 180 179 180 179 176 174 173 173 172 170 169 171 173 174 174 178 185 193 201 205 202 195 185 174 169 178 187 195 204 202 197 190 174 168 178 189 196 203 209 203 187 177 176 172 165 161 163 162 129 107 73 63 88 117 122 105 92 94 92 95 99 96 89
204 204 198 202 210 209 200 196 200 199 195 195 196 199 197 191 188 184 183 182 181 182 182 182 183 182 181 178 177 176 175 175 176 177 176 175 175 177 184 192 197 197 194 189 185 180 174 174 183 190 201 206 203 195 183 176 179 186 194 203 200 189 184 182 183 179 174 176 169 157 127 122 126 94 84 110 123 113 101 98 100 101 94 89 85
207 206 199 202 209 209 207 201 197 198 198 195 197 201 197 192 190 186 184 183 182 184 184 184 184 184 185 184 183 180 178 181 184 185 182 177 175 172 178 188 191 192 193 188 185 182 179 178 185 190 196 202 200 194 189 182 184 192 196 204 199 190 194 191 184 184 188 193 177 162 145 141 141 125 112 120 126 122 115 110 105 105 101 96 93
209 209 203 203 209 208 208 205 199 199 200 198 200 201 196 192 191 188 186 184 184 185 185 184 185 187 188 188 189 186 183 185 188 190 190 188 183 176 178 184 186 192 196 196 195 192 189 187 191 197 195 195 193 187 186 181 183 191 188 193 195 188 191 188 184 192 192 187 176 171 161 144 131 126 125 126 127 129 128 126 118 112 109 104 95
211 213 210 206 210 214 210 207 204 202 202 201 202 199 192 191 192 191 188 185 186 187 188 188 188 189 191 192 192 189 187 187 188 193 197 197 193 189 187 187 189 195 201 203 203 202 199 194 196 200 192 186 185 181 180 179 178 182 176 175 176 171 175 180 187 194 183 176 174 174 168 150 132 127 124 121 123 131 134 131 122 110 103 99 88
220 222 221 214 213 217 216 212 208 204 203 204 202 196 191 193 194 193 190 186 186 188 192 192 191 192 193 193 191 189 189 189 193 199 201 200 200 200 198 194 193 199 206 204 201 201 201 197 196 198 193 183 177 177 180 178 176 173 164 159 159 157 165 179 184 176 170 175 177 173 169 159 143 132 127 125 123 125 128 125 117 105 99 96 82
220 223 223 220 216 216 217 216 212 207 204 203 201 196 193 195 195 193 190 188 187 188 191 192 192 194 194 194 191 190 189 190 198 204 203 202 204 204 202 200 198 200 207 202 196 197 196 196 196 195 194 185 173 176 180 178 175 166 154 149 150 156 167 171 164 160 166 175 178 173 171 162 146 141 140 133 126 123 124 122 113 98 84 74 62
213 218 220 217 213 211 211 212 211 208 203 200 201 198 194 194 194 194 191 189 189 189 190 190 192 195 197 197 194 192 192 195 201 204 204 204 205 202 199 202 199 196 203 200 193 194 191 193 197 193 192 186 175 175 179 179 173 154 144 150 147 149 160 159 156 159 166 174 177 172 171 165 151 150 148 135 129 126 124 119 109 90 66 55 57
210 215 219 217 212 211 211 209 208 208 203 201 201 198 194 193 192 192 192 190 190 191 190 189 191 195 197 198 197 197 197 199 202 204 204 205 205 201 200 202 197 193 198 196 191 191 188 189 195 191 187 186 179 176 174 175 170 151 145 153 148 143 151 155 155 159 168 175 174 170 171 169 160 157 153 144 143 142 135 118 97 79 72 70 73
210 215 218 218 215 214 213 207 208 208 203 202 202 197 196 195 192 190 190 190 189 191 189 186 189 194 195 197 200 201 199 199 199 199 201 205 205 201 204 205 198 199 201 197 195 193 188 187 193 189 184 185 184 181 172 165 169 160 154 155 148 143 150 164 165 163 172 176 171 174 178 175 168 167 167 165 165 166 168 166 141 115 99 93 91
212 216 217 216 214 213 208 205 211 209 200 201 202 198 197 196 194 191 189 189 188 188 186 186 189 191 193 196 199 198 195 195 192 195 201 204 203 199 204 205 201 206 206 203 202 196 191 187 189 188 186 187 187 187 180 171 171 163 156 155 151 143 133 155 175 173 178 179 175 180 184 181 179 184 187 186 189 189 190 183 153 128 114 108 102
215 218 218 214 212 212 208 209 215 206 197 199 200 198 196 193 193 192 191 190 187 185 185 186 188 189 193 195 194 191 191 191 189 196 202 201 202 201 201 201 201 207 204 202 202 195 192 189 189 188 189 192 191 189 187 183 179 168 162 157 156 150 131 151 174 166 175 188 185 189 192 190 190 196 197 197 200 196 181 163 141 129 120 117 112
217 220 219 213 213 214 214 215 211 200 197 198 196 195 194 191 189 189 190 189 186 185 185 185 186 188 191 190 187 186 187 187 188 195 201 197 198 198 195 192 195 200 198 195 191 187 189 189 189 189 189 194 198 196 190 186 186 184 181 165 159 164 156 165 170 149 156 189 186 186 193 195 199 206 203 198 197 181 161 149 137 133 129 126 122
217 221 219 216 218 220 220 217 205 196 197 195 193 192 192 190 188 188 188 185 183 185 186 187 187 187 187 184 182 182 182 183 184 189 192 189 188 188 186 186 188 191 192 191 185 182 186 187 187 187 189 192 199 206 198 191 191 191 192 182 169 172 164 167 168 146 140 163 168 171 185 192 194 200 189 173 170 161 150 142 136 136 134 128 123
218 222 219 217 220 221 222 218 201 195 195 192 191 191 192 191 190 190 188 185 185 184 185 186 186 184 180 177 176 176 176 176 176 180 183 183 184 185 188 188 188 189 191 190 186 182 182 185 187 186 187 191 194 205 209 203 198 195 194 187 161 136 142 161 173 160 148 149 156 162 173 171 158 158 156 150 152 151 144 139 135 133 128 123 118
220 223 219 215 217 216 220 217 200 195 195 191 190 191 193 191 190 191 187 186 187 182 179 180 181 179 174 171 170 171 174 176 176 178 180 182 186 191 197 195 193 194 193 192 191 188 184 185 191 190 191 195 192 198 215 214 208 206 199 192 178 140 134 155 173 168 158 150 151 157 159 151 145 146 146 143 144 142 138 134 130 125 120 117 114
221 223 219 217 217 214 219 218 201 197 197 192 190 192 193 191 189 188 184 183 183 178 175 175 175 173 170 168 168 172 177 179 178 175 175 179 183 188 191 191 193 193 192 193 193 193 192 192 195 197 200 202 199 200 209 212 218 222 209 201 208 197 174 169 162 173 171 158 156 157 154 148 146 146 143 140 136 135 135 132 127 121 117 118 117
224 225 222 220 220 218 222 217 202 200 198 191 191 192 192 191 188 186 183 179 176 174 172 171 170 169 170 170 170 173 175 174 173 172 176 182 184 184 181 183 187 187 187 191 195 195 198 200 201 206 209 209 208 208 209 207 213 222 217 214 223 221 217 210 183 183 184 173 167 164 159 154 149 145 141 140 137 139 140 135 129 125 122 126 127
230 231 227 220 218 220 224 219 206 203 200 194 193 193 192 193 188 183 182 176 172 172 171 168 168 168 170 170 169 170 166 163 162 162 177 188 188 183 178 180 180 177 179 187 194 194 196 203 206 212 217 215 214 214 214 211 209 210 210 215 224 227 233 237 221 202 187 175 169 166 163 158 149 145 143 141 139 143 144 139 136 132 131 133 132